Weather History for KHND - December, 2012

Change the Weather History Date:

Friday, December 14, 2012

  Actual Average (KLAS) Record (KLAS)
Temperature  
Mean Temperature 46 °F 47 °F  
Max Temperature 50 °F 56 °F 72 °F (1942)
Min Temperature 41 °F 38 °F 16 °F (1945)
Degree Days  
Heating Degree Days 20 18  
Month to date heating degree days 233  
Since 1 July heating degree days 542  
Cooling Degree Days 0 0  
Month to date cooling degree days 0  
Year to date cooling degree days 3568  
Moisture  
Dew Point 39 °F    
Average Humidity 80    
Maximum Humidity 100    
Minimum Humidity 43    
Precipitation  
Precipitation 0.17 in 0.02 in 0.20 in (2012)
Month to date precipitation 0.19  
Year to date precipitation 3.88  
Snow  
Snow 0.00 in 0.00 in T in (1967)
Month to date snowfall 0.1  
Since 1 July snowfall 0.1  
Snow Depth -    
Sea Level Pressure  
Sea Level Pressure 29.76 in    
Wind  
Wind Speed 9 mph (SSW)    
Max Wind Speed 25 mph    
Max Gust Speed 31 mph    
Visibility 10 miles    
Events Rain    
T = Trace of Precipitation, MM = Missing Value Source: NWS Daily Summary

Daily Weather History Graph

Daily Weather History Graph

Search for Another Location

Airport or City:

Trip Planner

Search our weather history database for the weather conditions in past years. The results will help you decide how hot, cold, wet, or windy it might be!

Date:

Astronomy

Dec. 14, 2012 Rise Set
Actual Time 6:43 AM PST 4:27 PM PST
Civil Twilight 6:14 AM PST 4:56 PM PST
Nautical Twilight 5:42 AM PST 5:28 PM PST
Astronomical Twilight 5:11 AM PST 5:59 PM PST
Moon 7:53 AM PST (12/14) 6:23 PM PST (12/14)
Length of Visible Light 10h 41m
Length of Day
9h 44m
Waxing Crescent, 3% of the Moon is Illuminated
Dec 14
Waxing Crescent
Dec 19
First Quarter
Dec 28
Full
Jan 4
Last Quarter
Jan 11
New

Hourly Weather History & Observations

Time (PST) Temp. Windchill Dew Point Humidity Pressure Visibility Wind Dir Wind Speed Gust Speed Precip Events Conditions
12:29 AM 44.6 °F 41.4 °F 44.6 °F 100% 29.66 in 10.0 mi NE 5.8 mph - 0.01 in Rain Heavy Rain
12:56 AM 45.0 °F - 45.0 °F 100% 29.65 in 10.0 mi Calm Calm - 0.02 in Rain Heavy Rain
1:56 AM 45.0 °F 41.8 °F 45.0 °F 100% 29.64 in 10.0 mi NNE 5.8 mph - 0.02 in Rain Heavy Rain
2:39 AM 44.6 °F 42.2 °F 44.6 °F 100% 29.63 in 10.0 mi NNE 4.6 mph - 0.05 in Rain Heavy Rain
2:48 AM 44.6 °F 42.2 °F 44.6 °F 100% 29.62 in 10.0 mi NNE 4.6 mph - 0.06 in Rain Heavy Rain
3:56 AM 43.9 °F - 43.9 °F 100% 29.62 in 10.0 mi Calm Calm - 0.03 in Rain Heavy Rain
4:32 AM 44.6 °F 41.4 °F 44.6 °F 100% 29.61 in 10.0 mi SW 5.8 mph - 0.03 in Rain Heavy Rain
4:56 AM 43.9 °F 40.5 °F 43.9 °F 100% 29.62 in 10.0 mi SW 5.8 mph - 0.05 in Rain Heavy Rain
5:21 AM 44.6 °F 40.7 °F 44.6 °F 100% 29.62 in 10.0 mi SW 6.9 mph - 0.02 in Rain Heavy Rain
5:56 AM 45.0 °F 40.6 °F 43.9 °F 96% 29.63 in 10.0 mi South 8.1 mph - 0.04 in Rain Heavy Rain
6:56 AM 45.0 °F 40.1 °F 43.0 °F 93% 29.66 in 10.0 mi South 9.2 mph - 0.01 in Rain Light Rain
7:56 AM 45.9 °F 41.7 °F 41.9 °F 86% 29.67 in 10.0 mi South 8.1 mph - 0.00 in   Mostly Cloudy
8:56 AM 46.9 °F - 39.9 °F 77% 29.70 in 10.0 mi SSW 12.7 mph - N/A   Mostly Cloudy
10:56 AM 46.9 °F - 37.9 °F 71% 29.73 in 10.0 mi SSW 25.3 mph 31.1 mph N/A   Overcast
11:56 AM 50.0 °F - 36.0 °F 59% 29.74 in 10.0 mi SSW 25.3 mph 31.1 mph N/A   Mostly Cloudy
12:56 PM 50.0 °F - 34.0 °F 54% 29.75 in 10.0 mi SW 18.4 mph - N/A   Partly Cloudy
1:56 PM 48.9 °F - 32.9 °F 54% 29.75 in 10.0 mi SW 24.2 mph 27.6 mph N/A   Scattered Clouds
2:56 PM 50.0 °F - 28.0 °F 43% 29.80 in 10.0 mi SSW 23.0 mph - N/A   Partly Cloudy
3:56 PM 46.9 °F - 29.1 °F 50% 29.83 in 10.0 mi SSW 17.3 mph - N/A   Partly Cloudy
4:56 PM 45.9 °F 40.4 °F 30.0 °F 54% 29.86 in 10.0 mi South 11.5 mph - N/A   Clear
5:56 PM 45.9 °F 41.2 °F 32.9 °F 61% 29.88 in 10.0 mi South 9.2 mph - N/A   Clear
6:56 PM 45.9 °F 40.8 °F 32.0 °F 58% 29.88 in 10.0 mi South 10.4 mph - N/A   Partly Cloudy
7:56 PM 45.9 °F 40.8 °F 32.9 °F 61% 29.89 in 10.0 mi SW 10.4 mph - N/A   Clear
8:56 PM 41.9 °F 34.6 °F 36.9 °F 82% 29.91 in 10.0 mi SW 13.8 mph - 0.00 in Rain Heavy Rain
9:18 PM 42.8 °F 35.4 °F 37.4 °F 81% 29.90 in 10.0 mi SW 15.0 mph - 0.00 in Rain Heavy Rain
9:30 PM 41.0 °F 33.9 °F 37.4 °F 87% 29.91 in 9.0 mi SSW 12.7 mph - 0.02 in Rain Heavy Rain
10:05 PM 41.0 °F 34.3 °F 37.4 °F 87% 29.91 in 10.0 mi South 11.5 mph - 0.00 in Rain Heavy Rain
10:56 PM 41.0 °F 35.8 °F 36.9 °F 85% 29.93 in 10.0 mi South 8.1 mph - 0.00 in   Overcast
11:56 PM 41.9 °F 35.9 °F 36.0 °F 79% 29.91 in 10.0 mi SSE 10.4 mph - N/A   Overcast